Location: Balsareny
(41.8670°N, 1.8830°E)
Time: 20:30:08
(UTC+01:00)

N. Korean satellite - Pass Details

Date: 07 December 2021
Orbit: 447 x 490 km, 97.3° (Epoch: 28 January)

Event Time Altitude Azimuth Distance (km) Brightness Sun altitude
Rises 05:59:01 0° 15° (NNE) 2,459 10.2 -23.0°
Reaches altitude 10° 06:01:04 10° 18° (NNE) 1,581 9.2 -22.6°
Maximum altitude 06:04:26 64° 100° (E) 498 6.7 -22.0°
Drops below altitude 10° 06:07:46 10° 184° (S) 1,570 9.2 -21.4°
Sets 06:09:48 0° 187° (S) 2,440 10.2 -21.0°
